Tracking 29777 objects as of 4-Oct-2024
HD Live streaming from Space Station
objects crossing your sky now

STARLINK-4205

Track STARLINK-4205 now!
10-day predictions
STARLINK-4205 is classified as:


NORAD ID: 53174
Int'l Code: 2022-083AU
Perigee: 546.0 km
Apogee: 547.8 km
Inclination: 53.2 °
Period: 95.4 minutes
Semi major axis: 6917 km
RCS: Unknown
Launch date: July 17, 2022
Source: United States (US)
Launch site: AIR FORCE EASTERN TEST RANGE (AFETR)
Your satellite tracking list
Your tracking list is empty




NASA's NSSDC Master Catalog

Two Line Element Set (TLE):
1 53174U 22083AU  24277.51616390  .00000495  00000-0  49174-4 0  9995
2 53174  53.2178 358.1820 0001283  97.8495 262.2643 15.08845620123023
Source of the keplerian elements: AFSPC